When you browse on this site, cookies collect data to enhance your experience and personalize the content and advertising you see.
Visit our Privacy Policy to learn more. By continuing to use the site, you agree to this use of cookies and data.
  • In Deutschland
  • Länderverzeichnis
  • Für 7 Tage
  • Wassertemperatur
  • Wetterkarte
  • Widgets
  • user-avatar
    Anmelden

    Stündliche Wetter Markova

    Heute, 15 Oktober, Dienstag

    Zeit Temperatur Niederschläge Wind Luftdruck Luftfeuchtigkeit
    00:00 +4°C° 0 mm 6 m/S 730 mmHg 84%
    01:00 +4°C° 0 mm 6 m/S 731 mmHg 83%
    02:00 +4°C° 0 mm 6 m/S 731 mmHg 82%
    03:00 +3°C° 0 mm 5 m/S 731 mmHg 82%
    04:00 +3°C° 0 mm 5 m/S 732 mmHg 83%
    05:00 +3°C° 0 mm 5 m/S 732 mmHg 83%
    06:00 +4°C° 0 mm 4 m/S 732 mmHg 82%
    07:00 +4°C° 0 mm 4 m/S 732 mmHg 82%
    08:00 +4°C° 0 mm 4 m/S 732 mmHg 80%
    09:00 +4°C° 0 mm 4 m/S 732 mmHg 79%
    10:00 +5°C° 0 mm 5 m/S 732 mmHg 77%
    11:00 +5°C° 0.1 mm 4 m/S 732 mmHg 75%
    12:00 +5°C° 0.1 mm 4 m/S 732 mmHg 73%
    13:00 +5°C° 0.1 mm 4 m/S 732 mmHg 71%
    14:00 +5°C° 0 mm 4 m/S 732 mmHg 73%
    15:00 +5°C° 0 mm 3 m/S 732 mmHg 75%
    16:00 +4°C° 0 mm 3 m/S 732 mmHg 77%
    17:00 +4°C° 0 mm 3 m/S 732 mmHg 82%
    18:00 +3°C° 0 mm 3 m/S 732 mmHg 86%
    19:00 +3°C° 0 mm 2 m/S 732 mmHg 90%
    20:00 +3°C° 0 mm 2 m/S 733 mmHg 90%
    21:00 +2°C° 0 mm 3 m/S 733 mmHg 89%
    22:00 +2°C° 0 mm 3 m/S 733 mmHg 89%
    23:00 +1°C° 0 mm 3 m/S 733 mmHg 89%

    Morgen, 16 Oktober, Mittwoch

    Zeit Temperatur Niederschläge Wind Luftdruck Luftfeuchtigkeit
    00:00 0°C° 0 mm 3 m/S 733 mmHg 89%
    01:00 0°C° 0 mm 3 m/S 733 mmHg 90%
    02:00 0°C° 0 mm 3 m/S 733 mmHg 89%
    03:00 -1°C° 0 mm 3 m/S 734 mmHg 89%
    04:00 -1°C° 0 mm 3 m/S 734 mmHg 89%
    05:00 -2°C° 0 mm 4 m/S 735 mmHg 91%
    06:00 -1°C° 0 mm 4 m/S 735 mmHg 93%
    07:00 -1°C° 0 mm 4 m/S 735 mmHg 96%
    08:00 -1°C° 0 mm 4 m/S 736 mmHg 94%
    09:00 -1°C° 0 mm 4 m/S 736 mmHg 92%
    10:00 0°C° 0 mm 4 m/S 737 mmHg 90%
    11:00 0°C° 0 mm 4 m/S 737 mmHg 84%
    12:00 +1°C° 0 mm 4 m/S 737 mmHg 79%
    13:00 +1°C° 0 mm 4 m/S 738 mmHg 74%
    14:00 +1°C° 0 mm 4 m/S 738 mmHg 75%
    15:00 +1°C° 0 mm 4 m/S 739 mmHg 76%
    16:00 +1°C° 0 mm 4 m/S 739 mmHg 77%
    17:00 0°C° 0 mm 4 m/S 740 mmHg 77%
    18:00 0°C° 0 mm 4 m/S 740 mmHg 77%
    19:00 -1°C° 0 mm 4 m/S 741 mmHg 77%
    20:00 -1°C° 0 mm 4 m/S 741 mmHg 79%
    21:00 -2°C° 0 mm 4 m/S 742 mmHg 80%
    22:00 -2°C° 0 mm 4 m/S 742 mmHg 82%
    23:00 -2°C° 0 mm 4 m/S 742 mmHg 82%

    übermorgen, 17 Oktober, Donnerstag

    Zeit Temperatur Niederschläge Wind Luftdruck Luftfeuchtigkeit
    00:00 -2°C° 0 mm 4 m/S 743 mmHg 82%
    01:00 -3°C° 0 mm 4 m/S 743 mmHg 82%
    02:00 -3°C° 0 mm 4 m/S 743 mmHg 82%
    03:00 -3°C° 0 mm 4 m/S 744 mmHg 82%
    04:00 -3°C° 0 mm 4 m/S 744 mmHg 82%
    05:00 -3°C° 0 mm 4 m/S 744 mmHg 82%
    06:00 -2°C° 0 mm 3 m/S 745 mmHg 82%
    07:00 -2°C° 0 mm 3 m/S 745 mmHg 82%
    08:00 -1°C° 0 mm 3 m/S 745 mmHg 79%
    09:00 -1°C° 0 mm 4 m/S 745 mmHg 76%
    10:00 -1°C° 0 mm 4 m/S 745 mmHg 73%
    11:00 -1°C° 0 mm 4 m/S 745 mmHg 71%
    12:00 -1°C° 0 mm 4 m/S 745 mmHg 69%
    13:00 -1°C° 0 mm 4 m/S 745 mmHg 67%
    14:00 0°C° 0 mm 3 m/S 745 mmHg 68%
    15:00 0°C° 0 mm 3 m/S 745 mmHg 70%
    16:00 +1°C° 0 mm 2 m/S 744 mmHg 71%
    17:00 +1°C° 0.1 mm 2 m/S 744 mmHg 78%
    18:00 -1°C° 0.1 mm 2 m/S 744 mmHg 85%
    19:00 -1°C° 0.1 mm 2 m/S 743 mmHg 91%
    20:00 -2°C° 0.3 mm 2 m/S 742 mmHg 93%
    21:00 -2°C° 0.3 mm 2 m/S 742 mmHg 95%
    22:00 -2°C° 0.3 mm 2 m/S 741 mmHg 97%
    23:00 -2°C° 0.6 mm 2 m/S 740 mmHg 97%

    18 Oktober, Freitag

    Zeit Temperatur Niederschläge Wind Luftdruck Luftfeuchtigkeit
    00:00 -2°C° 0.6 mm 3 m/S 740 mmHg 97%
    01:00 -2°C° 0.6 mm 3 m/S 739 mmHg 97%
    02:00 -1°C° 0.8 mm 3 m/S 738 mmHg 97%
    03:00 -1°C° 0.8 mm 3 m/S 737 mmHg 97%
    04:00 -1°C° 0.8 mm 3 m/S 737 mmHg 97%
    05:00 -3°C° 0.8 mm 4 m/S 736 mmHg 97%
    06:00 -3°C° 0.8 mm 4 m/S 736 mmHg 97%
    07:00 -3°C° 0.8 mm 4 m/S 736 mmHg 97%
    08:00 -2°C° 0.8 mm 5 m/S 736 mmHg 96%
    09:00 -3°C° 0.8 mm 6 m/S 737 mmHg 95%
    10:00 -3°C° 0.8 mm 6 m/S 737 mmHg 94%
    11:00 -3°C° 0.2 mm 6 m/S 738 mmHg 92%
    12:00 -3°C° 0.2 mm 6 m/S 740 mmHg 89%
    13:00 -3°C° 0.2 mm 6 m/S 741 mmHg 86%
    14:00 -4°C° 0 mm 6 m/S 742 mmHg 84%
    15:00 -4°C° 0 mm 5 m/S 743 mmHg 82%
    16:00 -5°C° 0 mm 5 m/S 744 mmHg 80%
    17:00 -5°C° 0 mm 5 m/S 745 mmHg 82%
    18:00 -5°C° 0 mm 4 m/S 746 mmHg 83%
    19:00 -5°C° 0 mm 4 m/S 747 mmHg 84%
    20:00 -6°C° 0 mm 3 m/S 747 mmHg 87%
    21:00 -7°C° 0 mm 3 m/S 748 mmHg 90%
    22:00 -7°C° 0 mm 2 m/S 749 mmHg 92%
    23:00 -7°C° 0 mm 2 m/S 749 mmHg 93%

    19 Oktober, Samstag

    Zeit Temperatur Niederschläge Wind Luftdruck Luftfeuchtigkeit
    00:00 -8°C° 0 mm 2 m/S 749 mmHg 93%
    01:00 -8°C° 0 mm 2 m/S 750 mmHg 94%
    02:00 -8°C° 0 mm 2 m/S 750 mmHg 94%
    03:00 -9°C° 0 mm 2 m/S 751 mmHg 93%
    04:00 -8°C° 0 mm 1 m/S 751 mmHg 93%
    05:00 -8°C° 0 mm 1 m/S 751 mmHg 93%
    06:00 -8°C° 0 mm 1 m/S 752 mmHg 93%
    07:00 -8°C° 0 mm 1 m/S 752 mmHg 93%
    08:00 -6°C° 0 mm 1 m/S 752 mmHg 88%
    09:00 -4°C° 0 mm 1 m/S 753 mmHg 82%
    10:00 -2°C° 0 mm 1 m/S 753 mmHg 76%
    11:00 -1°C° 0 mm 1 m/S 753 mmHg 73%
    12:00 -3°C° 0 mm 2 m/S 753 mmHg 71%
    13:00 -2°C° 0 mm 2 m/S 753 mmHg 68%
    14:00 -2°C° 0 mm 2 m/S 753 mmHg 72%
    15:00 -3°C° 0 mm 2 m/S 753 mmHg 76%
    16:00 -1°C° 0 mm 1 m/S 753 mmHg 80%
    17:00 -4°C° 0 mm 2 m/S 753 mmHg 83%
    18:00 -5°C° 0 mm 2 m/S 753 mmHg 86%
    19:00 -6°C° 0 mm 2 m/S 753 mmHg 89%
    20:00 -6°C° 0 mm 2 m/S 753 mmHg 89%
    21:00 -7°C° 0 mm 2 m/S 753 mmHg 88%
    22:00 -7°C° 0 mm 2 m/S 753 mmHg 88%
    23:00 -7°C° 0 mm 2 m/S 753 mmHg 87%

    20 Oktober, Sonntag

    Zeit Temperatur Niederschläge Wind Luftdruck Luftfeuchtigkeit
    00:00 -7°C° 0 mm 2 m/S 752 mmHg 87%
    01:00 -7°C° 0 mm 2 m/S 752 mmHg 86%
    02:00 -7°C° 0 mm 2 m/S 752 mmHg 86%
    03:00 -7°C° 0 mm 2 m/S 752 mmHg 86%
    04:00 -7°C° 0 mm 2 m/S 752 mmHg 86%
    05:00 -7°C° 0 mm 2 m/S 752 mmHg 85%
    06:00 -7°C° 0 mm 3 m/S 752 mmHg 84%
    07:00 -7°C° 0 mm 3 m/S 752 mmHg 83%
    08:00 -6°C° 0 mm 3 m/S 752 mmHg 81%
    09:00 -4°C° 0 mm 3 m/S 752 mmHg 79%
    10:00 -3°C° 0 mm 4 m/S 752 mmHg 77%
    11:00 -2°C° 0 mm 4 m/S 752 mmHg 77%
    12:00 -1°C° 0 mm 4 m/S 752 mmHg 78%
    13:00 0°C° 0 mm 4 m/S 751 mmHg 78%
    14:00 0°C° 0 mm 4 m/S 751 mmHg 80%
    15:00 0°C° 0 mm 3 m/S 751 mmHg 82%
    16:00 -1°C° 0 mm 3 m/S 751 mmHg 85%
    17:00 -1°C° 0 mm 3 m/S 751 mmHg 86%
    18:00 -2°C° 0 mm 3 m/S 751 mmHg 88%
    19:00 -4°C° 0 mm 3 m/S 751 mmHg 89%
    20:00 -4°C° 0 mm 3 m/S 751 mmHg 89%
    21:00 -4°C° 0 mm 3 m/S 751 mmHg 89%
    22:00 -4°C° 0 mm 3 m/S 751 mmHg 89%
    23:00 -4°C° 0 mm 3 m/S 750 mmHg 89%
    Mehr zeigen